Temp
14 14 14 14 14 14 14 15 15 15 16 16 16 17 17 18 18 19 21 22 21 21 21 20 20 21 20 19 20 20 19 20 19 20 20 19 21 22 21 23 22 23 21 20 19
14 14 14 14 14 14 14 14 14 15 15 16 16 16 17 18 18 20 23 22 21 20 20 21 21 21 20 21 21 20 19 22 22 22 21 21 20 20 21 23 22 22 21 20 19
14 14 14 14 14 14 14 14 14 14 15 15 16 16 17 17 19 22 22 23 22 21 21 21 21 21 21 22 22 18 19 20 24 22 21 21 20 20 20 20 22 21 20 20 20
14 14 14 14 14 14 14 14 14 14 15 15 16 16 17 17 19 21 22 23 22 21 20 21 20 21 21 21 20 19 19 19 22 22 22 21 21 22 21 21 23 23 22 21 20
14 14 14 14 14 14 14 14 14 15 15 15 15 16 16 17 21 22 22 22 22 21 21 21 20 20 20 22 20 21 20 18 20 22 22 21 21 21 21 22 23 22 22 21 21
14 14 14 14 14 14 14 15 15 15 15 15 15 15 15 14 22 21 21 22 22 22 22 21 21 22 22 22 22 22 22 19 21 22 22 21 20 22 21 22 24 23 22 22 21
15 15 15 15 15 15 15 15 15 15 15 15 15 15 15 21 21 21 21 21 22 23 22 22 23 21 23 25 26 24 23 23 23 21 22 22 21 21 22 22 24 24 23 23 22
15 16 15 15 15 15 15 15 16 16 15 15 15 15 18 22 20 21 21 21 21 22 23 23 22 21 22 25 26 24 22 21 21 23 23 22 20 21 22 21 23 24 24 23 22
15 15 15 15 15 16 16 16 16 16 16 15 15 14 19 21 21 22 21 22 21 22 23 23 22 22 24 23 21 22 22 21 21 21 23 21 19 21 21 21 24 24 24 24 22
15 15 16 15 15 16 16 16 16 16 16 15 14 13 20 21 22 22 22 22 21 22 22 22 22 20 19 18 19 22 22 21 21 20 20 19 20 21 21 22 24 24 24 22 22
16 16 16 16 16 16 16 16 15 15 16 19 20 19 21 22 22 22 22 22 22 22 19 22 19 19 20 20 21 22 24 20 19 19 19 19 20 20 21 22 23 24 24 23 22
16 16 16 16 17 17 17 17 19 18 17 20 20 19 21 21 22 23 22 22 22 20 20 19 19 21 22 22 23 22 24 20 20 19 19 19 20 20 21 19 22 24 23 24 22
16 16 17 17 17 17 18 19 19 18 16 20 21 21 21 22 21 23 23 23 22 20 20 18 21 23 23 22 22 22 23 21 21 19 19 20 18 18 21 21 23 23 24 24 23
16 17 17 17 17 18 19 19 19 19 13 17 20 22 23 23 22 23 23 23 22 21 21 20 22 23 22 22 23 20 24 24 20 20 19 20 18 17 18 20 23 23 23 24 24
16 16 17 17 17 18 19 19 19 19 14 20 21 23 24 23 23 23 24 23 22 22 20 20 23 22 22 23 23 24 27 25 22 20 20 18 18 17 17 19 21 21 23 23 24
16 17 17 17 18 19 18 19 20 14 15 20 22 21 22 23 23 24 24 24 24 22 22 21 25 23 23 25 25 27 25 23 20 19 19 19 20 18 18 19 21 22 22 23 23
16 17 18 18 19 19 18 19 14 14 17 19 18 19 19 20 21 22 22 20 19 19 19 21 22 24 25 24 24 26 20 18 20 19 20 20 20 19 20 21 21 22 22 22 22
17 18 19 20 19 19 18 14 15 16 15 18 19 18 18 20 19 20 20 19 20 19 18 19 19 23 25 23 23 24 21 18 21 20 21 22 21 19 20 21 21 21 21 20 22
19 19 20 20 19 19 18 12 14 16 16 17 17 17 19 19 18 18 17 18 21 20 19 19 20 23 25 26 24 24 22 21 21 22 21 18 17 19 17 17 18 18 18 18 20
19 19 21 20 19 19 13 13 13 15 18 18 18 18 17 15 16 15 16 19 19 21 19 20 20 21 23 26 24 23 23 22 18 22 21 18 17 17 16 17 17 16 15 16 16
19 18 20 21 20 18 12 12 16 18 18 19 18 18 15 15 14 15 15 17 19 19 19 19 18 19 22 23 22 22 21 21 19 19 19 18 17 18 17 17 16 15 15 15 16
18 14 20 20 18 11 10 13 17 19 21 20 20 18 16 17 16 15 16 16 20 19 18 18 15 17 21 21 24 22 22 19 19 22 17 15 17 17 16 16 15 14 14 15 16
16 17 21 20 15 12 14 15 17 19 19 20 19 19 18 16 15 16 17 18 19 19 19 18 15 15 18 19 20 22 23 20 18 19 19 17 17 16 15 15 15 14 14 14 15
16 14 21 21 19 17 17 17 19 20 20 20 20 19 19 19 16 16 16 20 20 21 20 17 14 16 16 18 19 20 21 22 18 18 16 15 16 16 15 15 15 14 13 13 14
17 15 18 15 16 17 15 17 17 17 18 18 18 19 18 16 16 17 18 18 21 21 20 17 15 17 18 19 20 21 21 21 20 19 19 16 17 16 14 15 15 14 14 13 13
16 15 17 17 19 17 14 17 17 17 17 16 15 16 15 15 16 17 15 15 16 18 17 15 18 16 17 19 19 20 20 21 22 19 17 17 16 15 15 15 15 15 14 14 14
15 16 16 17 14 14 15 17 17 18 17 17 16 15 15 16 17 18 17 17 17 18 17 15 14 16 16 17 18 17 18 20 21 19 17 16 16 16 16 16 15 15 15 14 14
Height
1514 1512 1510 1509 1506 1504 1503 1503 1502 1501 1500 1500 1500 1499 1498 1497 1497 1496 1495 1498 1499 1501 1505 1509 1512 1516 1520 1520 1522 1524 1525 1524 1527 1523 1525 1523 1520 1523 1525 1528 1532 1533 1536 1543 1548
1512 1510 1508 1506 1504 1502 1500 1499 1499 1499 1499 1497 1497 1498 1497 1495 1494 1491 1493 1494 1497 1500 1503 1507 1510 1515 1519 1520 1522 1524 1522 1514 1513 1516 1521 1522 1522 1524 1529 1531 1533 1536 1545 1548 1550
1510 1508 1506 1504 1502 1500 1499 1497 1496 1496 1496 1496 1495 1495 1495 1494 1493 1488 1488 1490 1495 1498 1503 1507 1511 1515 1517 1517 1518 1523 1522 1515 1510 1512 1515 1520 1524 1526 1529 1533 1529 1533 1543 1547 1550
1509 1506 1504 1501 1499 1498 1497 1495 1494 1494 1493 1493 1493 1493 1493 1493 1494 1487 1487 1487 1492 1497 1501 1504 1510 1514 1514 1515 1515 1519 1516 1519 1513 1513 1516 1520 1523 1525 1529 1526 1531 1536 1542 1547 1552
1507 1503 1501 1499 1497 1495 1494 1492 1491 1491 1491 1491 1491 1492 1491 1491 1487 1486 1487 1488 1491 1493 1497 1502 1506 1510 1513 1509 1513 1511 1510 1513 1518 1516 1517 1520 1523 1524 1526 1527 1535 1541 1545 1548 1552
1505 1502 1499 1496 1494 1492 1491 1489 1488 1489 1489 1489 1489 1490 1491 1490 1484 1485 1487 1487 1489 1491 1494 1500 1502 1508 1508 1507 1509 1506 1512 1513 1517 1518 1521 1521 1526 1525 1529 1530 1535 1541 1546 1549 1553
1503 1500 1497 1494 1492 1490 1488 1487 1486 1486 1487 1488 1488 1487 1488 1481 1482 1484 1485 1486 1488 1490 1493 1497 1501 1506 1504 1502 1500 1505 1509 1508 1515 1519 1521 1524 1532 1531 1529 1533 1536 1541 1546 1549 1553
1502 1499 1496 1494 1491 1489 1487 1486 1485 1485 1486 1487 1488 1487 1481 1480 1481 1482 1483 1485 1486 1489 1494 1498 1502 1504 1506 1500 1499 1504 1504 1518 1515 1518 1521 1522 1535 1532 1533 1535 1537 1541 1546 1549 1553
1502 1500 1497 1494 1492 1490 1489 1487 1486 1485 1486 1487 1488 1487 1478 1476 1477 1480 1482 1484 1485 1489 1492 1497 1501 1500 1500 1501 1509 1505 1516 1516 1518 1520 1518 1524 1534 1534 1535 1538 1538 1542 1545 1548 1551
1502 1499 1498 1497 1495 1493 1491 1490 1488 1487 1487 1488 1488 1489 1477 1475 1476 1478 1480 1484 1485 1488 1493 1495 1497 1498 1500 1511 1529 1515 1515 1516 1514 1521 1521 1526 1528 1530 1536 1536 1539 1542 1546 1550 1551
1502 1500 1498 1496 1494 1494 1493 1491 1492 1490 1486 1481 1480 1477 1474 1476 1478 1478 1481 1485 1487 1490 1494 1491 1500 1506 1501 1503 1503 1506 1512 1522 1523 1521 1522 1531 1529 1530 1535 1536 1538 1541 1545 1550 1554
1502 1500 1497 1496 1494 1492 1491 1489 1488 1489 1482 1476 1474 1473 1472 1475 1477 1477 1481 1486 1486 1491 1489 1496 1503 1493 1493 1495 1500 1506 1510 1524 1526 1529 1528 1534 1534 1533 1536 1536 1537 1539 1544 1549 1554
1503 1501 1498 1495 1493 1492 1489 1488 1488 1488 1485 1469 1468 1469 1470 1474 1475 1476 1479 1482 1484 1490 1491 1501 1491 1488 1493 1496 1502 1505 1510 1516 1519 1530 1533 1524 1542 1540 1537 1537 1539 1540 1545 1548 1551
1502 1500 1498 1495 1495 1490 1487 1486 1486 1485 1494 1477 1467 1466 1467 1467 1473 1474 1477 1481 1482 1489 1491 1492 1485 1489 1494 1498 1498 1515 1494 1500 1514 1520 1537 1523 1556 1548 1541 1539 1536 1539 1542 1545 1548
1500 1498 1497 1494 1492 1489 1487 1485 1483 1483 1510 1473 1467 1466 1466 1469 1469 1473 1476 1480 1482 1483 1488 1492 1485 1489 1493 1491 1490 1495 1487 1490 1501 1519 1524 1538 1548 1549 1545 1540 1537 1537 1540 1543 1547
1498 1495 1494 1492 1490 1488 1486 1483 1482 1498 1507 1473 1467 1469 1467 1468 1468 1471 1474 1478 1479 1483 1483 1484 1477 1481 1482 1478 1479 1480 1487 1497 1509 1520 1539 1528 1529 1545 1536 1530 1533 1536 1538 1542 1547
1495 1492 1490 1487 1486 1485 1484 1482 1497 1506 1484 1483 1479 1474 1474 1472 1469 1472 1476 1480 1490 1498 1499 1483 1477 1474 1475 1482 1476 1478 1501 1536 1538 1541 1538 1514 1527 1522 1509 1515 1522 1530 1535 1539 1544
1490 1488 1487 1485 1486 1485 1483 1485 1502 1495 1494 1482 1477 1474 1476 1469 1475 1473 1477 1484 1481 1487 1498 1502 1502 1471 1467 1474 1480 1481 1492 1527 1536 1540 1527 1509 1527 1523 1511 1516 1524 1525 1529 1533 1537
1484 1483 1483 1485 1485 1485 1484 1503 1501 1494 1489 1486 1482 1484 1479 1474 1476 1477 1487 1486 1478 1481 1498 1496 1492 1464 1462 1462 1467 1478 1493 1486 1507 1507 1524 1532 1532 1524 1522 1524 1526 1530 1532 1535 1538
1482 1481 1479 1482 1483 1484 1486 1500 1495 1488 1487 1484 1489 1485 1492 1491 1490 1491 1492 1485 1485 1481 1479 1479 1493 1472 1463 1459 1462 1470 1473 1499 1510 1523 1538 1540 1539 1538 1530 1529 1531 1534 1536 1535 1534
1481 1478 1478 1478 1480 1483 1496 1496 1487 1484 1484 1484 1483 1486 1492 1494 1497 1499 1501 1487 1484 1480 1476 1474 1485 1484 1469 1470 1475 1479 1487 1490 1499 1509 1535 1542 1541 1524 1527 1529 1535 1537 1537 1536 1536
1481 1482 1478 1479 1481 1486 1495 1490 1486 1484 1481 1481 1479 1482 1489 1490 1496 1498 1497 1493 1484 1485 1487 1480 1490 1499 1482 1466 1460 1467 1480 1490 1513 1506 1520 1534 1541 1528 1529 1534 1539 1541 1538 1537 1537
1483 1480 1479 1481 1490 1491 1487 1486 1485 1483 1483 1482 1483 1482 1484 1490 1498 1495 1492 1486 1486 1487 1486 1482 1496 1510 1493 1481 1469 1476 1473 1482 1493 1497 1511 1529 1537 1530 1531 1531 1536 1541 1539 1538 1537
1484 1485 1479 1479 1479 1481 1484 1487 1486 1483 1483 1482 1483 1483 1485 1486 1488 1495 1496 1490 1485 1484 1482 1481 1495 1501 1514 1499 1490 1490 1479 1475 1490 1507 1517 1521 1527 1530 1533 1534 1532 1538 1543 1543 1542
1485 1485 1485 1487 1484 1482 1482 1485 1490 1490 1487 1486 1485 1484 1488 1496 1497 1496 1493 1490 1484 1483 1481 1482 1500 1494 1490 1490 1487 1483 1482 1480 1486 1488 1501 1517 1515 1523 1531 1535 1538 1541 1543 1546 1546
1489 1490 1487 1484 1483 1484 1486 1491 1492 1491 1492 1494 1494 1491 1489 1495 1495 1495 1493 1496 1496 1485 1484 1486 1492 1496 1495 1490 1486 1487 1481 1474 1476 1489 1497 1507 1520 1524 1529 1532 1539 1543 1546 1548 1550
1492 1491 1491 1487 1488 1490 1493 1491 1492 1491 1495 1495 1494 1493 1495 1495 1494 1492 1492 1492 1492 1488 1491 1493 1501 1505 1515 1500 1491 1505 1495 1486 1481 1486 1496 1510 1511 1519 1527 1532 1537 1543 1548 1550 1554
Wind_Speed
13 12 13 14 13 13 13 12 12 10 10 11 10 10 11 10 11 13 17 8 16 7 16 12 11 13 11 8 15 8 2 5 8 11 7 10 8 20 15 28 26 8 31 37 43
15 14 14 14 15 14 13 12 10 10 10 9 10 9 11 12 13 17 9 10 15 15 15 14 14 16 8 4 6 5 4 4 17 16 12 14 8 15 8 17 12 32 31 41 38
17 16 16 16 15 15 14 13 11 9 9 10 8 8 9 11 11 1 1 12 18 18 12 15 11 12 9 9 4 3 2 10 9 18 29 20 13 10 13 7 27 34 40 40 39
17 17 17 16 16 15 14 13 11 9 8 9 9 6 7 7 4 3 2 8 19 18 15 20 16 7 5 6 6 4 8 5 11 21 23 17 13 12 22 19 34 38 44 40 41
16 15 15 15 15 14 13 12 11 8 7 8 8 6 5 6 10 3 5 6 15 20 20 20 18 10 4 8 10 7 8 11 17 17 19 20 14 7 15 31 26 37 37 39 38
18 15 14 13 13 13 12 10 9 7 6 7 7 6 5 4 3 3 3 5 14 18 21 24 12 9 10 12 10 11 7 15 14 16 17 14 10 15 12 26 35 32 39 36 33
19 16 14 13 12 11 9 7 6 5 5 6 7 6 9 13 6 1 7 7 9 15 21 25 17 8 4 5 18 16 7 11 18 17 15 22 5 11 24 23 30 29 34 38 31
19 16 13 12 11 10 8 6 4 2 3 4 6 6 9 8 11 6 3 7 12 14 20 19 13 16 13 15 4 5 5 5 11 16 18 7 6 17 27 16 25 26 28 30 29
20 15 13 14 12 11 10 8 5 2 2 4 3 5 8 7 16 10 10 6 14 14 21 14 8 10 8 2 5 1 3 4 14 7 11 2 7 18 24 19 27 25 25 20 41
19 14 12 13 12 10 11 9 5 3 3 4 5 6 6 8 15 11 10 6 12 13 7 8 5 2 3 5 4 3 4 2 9 3 8 1 7 15 23 17 25 22 24 29 39
18 14 10 9 11 12 13 9 5 3 7 10 8 11 14 7 13 14 19 13 11 10 5 5 3 5 6 6 6 5 4 7 5 2 7 9 7 13 14 18 18 21 22 28 34
16 15 10 10 10 11 15 11 7 7 11 19 19 23 18 13 8 15 18 16 9 5 2 5 4 7 4 7 7 4 1 7 12 10 5 4 6 8 4 12 20 25 21 25 30
13 14 13 11 12 9 12 10 11 18 6 15 14 15 17 7 11 17 19 16 6 4 4 6 6 8 6 8 8 7 5 8 10 11 4 12 3 2 11 8 18 21 20 29 33
13 11 11 12 9 10 10 13 17 18 4 6 4 5 8 9 6 16 16 11 2 8 5 6 8 6 6 8 6 7 8 11 24 10 5 2 4 4 6 11 13 15 15 31 38
16 13 12 15 15 9 9 17 15 3 4 11 4 1 3 16 7 14 20 20 5 7 6 8 4 7 8 13 8 11 8 13 21 5 10 6 5 3 6 12 16 11 16 21 33
17 15 13 14 12 5 11 16 9 5 2 7 2 7 3 3 5 4 25 22 7 2 4 7 18 7 10 11 12 12 4 6 6 4 1 9 5 4 8 17 15 15 16 19 22
18 17 14 15 5 9 15 12 5 3 6 6 4 5 5 5 4 5 5 5 5 2 4 6 9 10 8 6 3 4 7 2 0 1 6 14 4 6 14 21 25 20 25 23 23
18 16 13 10 6 10 12 4 4 2 5 5 4 9 4 4 3 3 8 4 4 4 1 2 8 6 5 9 8 4 8 6 5 4 2 12 4 4 4 11 16 16 18 17 25
13 10 11 5 5 7 0 5 4 2 4 4 8 7 7 7 5 5 6 3 4 4 7 3 6 6 1 6 8 3 2 6 6 3 4 3 2 7 8 5 6 5 7 12 17
12 7 8 7 7 6 5 4 4 5 2 2 2 3 4 8 5 7 8 3 7 7 7 6 4 4 7 4 3 8 4 4 3 4 2 3 5 3 5 6 10 8 7 4 7
10 6 1 10 8 5 3 4 3 11 13 2 4 3 4 4 4 2 2 5 3 9 11 4 3 8 2 3 6 4 3 5 4 4 6 4 2 4 11 11 10 10 9 10 4
7 2 11 20 4 5 3 4 2 5 1 3 2 5 4 3 4 2 1 4 15 10 7 4 4 1 5 9 4 5 6 5 4 2 3 4 2 10 14 18 14 9 10 11 11
14 6 2 21 3 2 3 3 7 2 2 2 4 5 3 4 5 3 1 8 21 5 2 4 3 3 8 7 7 4 2 6 4 2 5 5 5 7 18 21 17 9 10 9 10
4 3 4 13 7 6 3 3 1 6 3 2 1 6 3 2 4 4 4 3 20 1 5 2 3 5 2 4 1 6 7 4 6 4 4 3 14 12 12 11 21 17 12 14 15
4 3 7 1 5 4 7 6 6 5 11 16 6 2 6 2 3 1 2 3 11 4 3 2 3 4 4 6 5 3 8 4 3 6 6 16 17 18 14 14 19 19 18 17 20
6 6 10 7 6 5 6 4 7 3 4 5 7 12 5 4 1 2 3 4 3 4 7 4 2 5 6 12 11 6 14 8 8 8 14 16 14 18 26 27 22 21 20 19 18
12 6 5 8 2 6 3 3 5 3 10 16 5 4 6 3 6 5 3 4 5 4 5 3 3 3 2 10 7 7 7 7 4 6 22 16 15 27 20 24 25 24 22 24 25
Wind_Direction
330 327 324 322 321 315 307 303 296 294 291 290 290 292 291 281 275 268 254 235 198 185 168 178 200 190 193 234 225 206 276 140 152 178 138 172 127 115 107 132 138 137 149 151 156
331 328 325 321 318 318 312 306 296 289 289 279 284 289 292 292 286 269 270 224 193 175 181 185 184 175 194 242 235 168 284 179 170 178 159 168 139 164 136 145 128 133 147 147 156
332 327 323 319 318 316 313 308 302 285 282 277 269 284 291 299 303 261 288 211 195 192 186 191 182 183 209 223 153 136 280 318 172 156 150 156 149 158 142 131 159 148 156 153 160
329 325 320 317 316 315 312 306 301 287 274 269 266 268 281 284 234 136 356 199 190 192 185 188 199 204 212 169 139 101 236 277 133 143 146 165 159 160 172 188 160 157 159 154 157
338 329 323 319 315 314 311 305 299 284 268 259 255 261 262 255 250 195 46 158 184 183 190 189 201 208 197 169 137 168 201 297 246 157 145 143 152 148 127 155 162 152 161 162 169
344 338 330 325 318 317 314 307 296 281 258 247 241 246 239 250 198 165 296 222 201 191 189 192 203 207 267 170 182 191 134 158 181 152 144 125 129 133 168 158 164 150 163 168 159
353 350 344 338 335 332 327 320 303 280 254 229 231 231 240 228 159 204 318 240 205 201 195 194 207 248 326 313 233 156 151 161 158 154 139 127 120 160 155 155 164 165 170 174 166
357 357 3 0 360 356 356 352 331 285 241 209 229 239 250 182 187 220 226 211 196 192 197 200 220 268 263 267 303 167 88 157 170 164 160 152 148 167 168 175 179 177 178 179 167
359 3 8 8 18 26 33 24 31 67 162 176 187 252 258 196 213 210 215 242 183 182 193 216 283 261 258 67 0 313 173 168 149 321 164 8 112 183 188 196 179 184 190 170 169
356 2 8 11 15 11 5 4 35 47 141 171 230 289 243 218 191 190 196 197 172 175 211 250 221 211 58 82 218 210 183 180 147 136 63 10 127 161 187 191 185 189 191 157 161
352 355 358 359 350 346 342 344 332 270 227 238 272 259 294 281 208 200 201 196 192 172 174 201 102 226 222 183 220 270 354 95 78 107 63 316 145 175 183 191 194 191 193 160 165
349 352 346 341 336 341 331 325 332 327 300 293 283 268 273 280 221 199 195 186 194 202 186 16 212 230 235 266 262 272 155 95 93 144 95 47 85 173 202 209 198 190 191 169 172
346 345 344 332 324 325 319 313 327 316 301 301 255 253 261 236 234 203 202 199 158 190 182 171 231 212 226 264 282 268 202 184 129 107 101 93 59 289 231 242 191 194 197 182 169
341 336 338 334 326 317 326 2 353 306 37 282 197 264 254 205 193 194 207 209 181 193 209 219 254 232 231 255 211 270 217 149 147 156 174 192 187 229 261 236 194 191 185 184 173
337 325 320 316 321 303 353 335 341 302 19 334 180 169 153 157 163 201 192 212 208 187 117 241 222 210 220 234 214 240 241 174 171 90 110 219 106 146 237 218 211 206 196 180 184
331 318 311 303 303 345 326 334 330 48 280 331 11 334 94 255 249 212 191 209 229 235 284 244 259 172 219 246 232 240 125 66 107 120 108 190 149 188 179 199 212 218 212 181 188
325 310 298 282 256 312 321 333 44 108 357 330 352 354 343 240 259 139 172 194 167 111 289 292 267 252 233 258 323 147 84 53 28 72 223 177 170 205 199 180 183 210 205 195 195
322 304 291 244 283 303 325 61 78 167 287 300 313 306 226 184 29 334 165 202 225 131 7 275 310 190 222 188 193 161 147 156 147 172 226 159 233 299 158 164 192 195 187 201 201
340 310 286 191 260 296 126 52 206 257 239 307 329 47 351 33 71 29 29 298 203 139 186 230 268 315 187 230 137 267 140 193 138 164 77 118 71 37 79 71 94 171 177 204 223
356 314 205 176 210 260 76 198 217 219 269 292 17 67 41 355 48 31 30 356 339 333 258 192 253 285 314 200 42 145 170 47 15 140 46 284 154 157 132 107 88 84 79 85 229
350 334 298 188 188 182 135 219 257 281 254 235 337 90 40 109 81 60 233 299 314 322 346 33 105 295 340 169 162 39 72 69 110 125 173 171 57 212 138 119 104 90 81 88 148
1 6 156 153 70 93 142 196 233 229 304 17 55 61 97 98 69 77 237 230 312 306 321 322 126 302 255 296 149 143 156 110 117 263 108 118 100 114 102 96 102 95 101 94 112
332 294 203 210 119 326 278 297 227 133 290 64 340 78 156 141 102 225 212 299 294 316 305 309 14 17 349 354 5 21 197 131 119 89 184 120 138 133 120 124 121 115 112 112 106
346 355 49 72 157 133 195 215 279 50 41 35 100 96 305 355 84 193 164 266 288 232 282 82 80 114 170 229 208 335 315 118 124 115 154 136 142 153 142 135 134 126 121 120 114
8 314 351 337 2 81 81 70 56 25 12 14 11 95 187 116 71 358 34 17 238 268 159 95 76 13 321 328 278 268 326 217 145 170 130 160 148 160 138 132 130 126 117 111 106
33 11 342 340 2 65 22 25 91 30 56 357 67 47 41 94 133 144 60 65 265 348 2 20 322 41 343 349 354 20 3 131 142 90 93 131 114 139 140 132 131 129 125 117 108
23 349 339 331 40 80 312 55 52 44 48 63 34 76 42 0 313 326 296 289 246 15 355 73 96 91 229 328 345 31 338 357 61 122 137 146 150 142 143 142 141 135 122 109 112